• en Belgique
  • Liste des pays
  • À 7 jours
  • Température de l'eau
  • Carte satellitaire
  • Carte météo
  • Widgets météo
  • user-avatar
    Se connecter

    Météo par heure à Albany

    Ce jour, 23 Novembre, Jeudi

    Heure Température Précipitation Vent Pression Humidité
    00:00 +12°C° 0 mm 3 m/s 762 mmHg 79%
    01:00 +11°C° 0 mm 3 m/s 762 mmHg 81%
    02:00 +11°C° 0 mm 3 m/s 762 mmHg 83%
    03:00 +11°C° 0 mm 3 m/s 762 mmHg 84%
    04:00 +11°C° 0 mm 3 m/s 762 mmHg 85%
    05:00 +11°C° 0 mm 3 m/s 762 mmHg 87%
    06:00 +13°C° 0 mm 3 m/s 762 mmHg 78%
    07:00 +15°C° 0 mm 4 m/s 762 mmHg 69%
    08:00 +18°C° 0 mm 4 m/s 762 mmHg 60%
    09:00 +19°C° 0 mm 4 m/s 761 mmHg 53%
    10:00 +21°C° 0 mm 4 m/s 761 mmHg 47%
    11:00 +23°C° 0 mm 4 m/s 761 mmHg 41%
    12:00 +23°C° 0 mm 5 m/s 760 mmHg 41%
    13:00 +25°C° 0 mm 5 m/s 760 mmHg 42%
    14:00 +25°C° 0 mm 5 m/s 759 mmHg 43%
    15:00 +23°C° 0 mm 6 m/s 759 mmHg 47%
    16:00 +22°C° 0 mm 6 m/s 759 mmHg 52%
    17:00 +21°C° 0 mm 6 m/s 759 mmHg 56%
    18:00 +19°C° 0 mm 6 m/s 759 mmHg 63%
    19:00 +17°C° 0 mm 6 m/s 759 mmHg 70%
    20:00 +15°C° 0 mm 5 m/s 759 mmHg 76%
    21:00 +14°C° 0 mm 5 m/s 759 mmHg 79%
    22:00 +14°C° 0 mm 5 m/s 759 mmHg 82%
    23:00 +13°C° 0 mm 5 m/s 759 mmHg 85%

    Demain, 24 Novembre, Vendredi

    Heure Température Précipitation Vent Pression Humidité
    00:00 +13°C° 0 mm 4 m/s 759 mmHg 86%
    01:00 +13°C° 0 mm 4 m/s 758 mmHg 88%
    02:00 +12°C° 0 mm 4 m/s 758 mmHg 89%
    03:00 +12°C° 0 mm 4 m/s 758 mmHg 89%
    04:00 +12°C° 0 mm 3 m/s 757 mmHg 90%
    05:00 +12°C° 0 mm 3 m/s 757 mmHg 90%
    06:00 +14°C° 0 mm 4 m/s 757 mmHg 80%
    07:00 +18°C° 0 mm 4 m/s 757 mmHg 70%
    08:00 +20°C° 0 mm 4 m/s 757 mmHg 60%
    09:00 +22°C° 0 mm 4 m/s 756 mmHg 53%
    10:00 +25°C° 0 mm 4 m/s 756 mmHg 47%
    11:00 +27°C° 0 mm 4 m/s 756 mmHg 40%
    12:00 +28°C° 0 mm 4 m/s 755 mmHg 41%
    13:00 +28°C° 0 mm 4 m/s 754 mmHg 41%
    14:00 +28°C° 0 mm 5 m/s 754 mmHg 42%
    15:00 +27°C° 0 mm 5 m/s 754 mmHg 50%
    16:00 +25°C° 0 mm 5 m/s 754 mmHg 58%
    17:00 +22°C° 0 mm 5 m/s 754 mmHg 66%
    18:00 +20°C° 0 mm 5 m/s 754 mmHg 74%
    19:00 +19°C° 0 mm 4 m/s 754 mmHg 81%
    20:00 +17°C° 0 mm 3 m/s 755 mmHg 88%
    21:00 +17°C° 0 mm 3 m/s 755 mmHg 88%
    22:00 +17°C° 0 mm 3 m/s 755 mmHg 88%
    23:00 +16°C° 0 mm 3 m/s 756 mmHg 88%

    Après-demain, 25 Novembre, Samedi

    Heure Température Précipitation Vent Pression Humidité
    00:00 +16°C° 0 mm 3 m/s 755 mmHg 88%
    01:00 +16°C° 0 mm 3 m/s 755 mmHg 88%
    02:00 +14°C° 0 mm 4 m/s 755 mmHg 88%
    03:00 +14°C° 0 mm 4 m/s 755 mmHg 87%
    04:00 +14°C° 0 mm 3 m/s 755 mmHg 87%
    05:00 +14°C° 0 mm 3 m/s 756 mmHg 87%
    06:00 +17°C° 0 mm 4 m/s 756 mmHg 80%
    07:00 +19°C° 0 mm 4 m/s 756 mmHg 74%
    08:00 +21°C° 0 mm 4 m/s 757 mmHg 68%
    09:00 +21°C° 0 mm 5 m/s 757 mmHg 67%
    10:00 +21°C° 0 mm 5 m/s 757 mmHg 66%
    11:00 +22°C° 0 mm 5 m/s 757 mmHg 65%
    12:00 +22°C° 0 mm 5 m/s 757 mmHg 63%
    13:00 +22°C° 0 mm 5 m/s 757 mmHg 62%
    14:00 +22°C° 0 mm 5 m/s 756 mmHg 60%
    15:00 +21°C° 0 mm 5 m/s 757 mmHg 61%
    16:00 +20°C° 0 mm 5 m/s 757 mmHg 63%
    17:00 +20°C° 0 mm 5 m/s 757 mmHg 64%
    18:00 +19°C° 0 mm 5 m/s 757 mmHg 68%
    19:00 +17°C° 0 mm 5 m/s 758 mmHg 72%
    20:00 +16°C° 0 mm 5 m/s 758 mmHg 77%
    21:00 +15°C° 0 mm 5 m/s 758 mmHg 79%
    22:00 +14°C° 0 mm 5 m/s 758 mmHg 82%
    23:00 +14°C° 0 mm 5 m/s 758 mmHg 85%

    26 Novembre, Dimanche

    Heure Température Précipitation Vent Pression Humidité
    00:00 +14°C° 0 mm 4 m/s 758 mmHg 86%
    01:00 +14°C° 0 mm 4 m/s 758 mmHg 86%
    02:00 +13°C° 0 mm 4 m/s 757 mmHg 87%
    03:00 +14°C° 0 mm 4 m/s 757 mmHg 86%
    04:00 +14°C° 0 mm 4 m/s 757 mmHg 85%
    05:00 +14°C° 0 mm 4 m/s 757 mmHg 84%
    06:00 +15°C° 0 mm 5 m/s 758 mmHg 79%
    07:00 +16°C° 0 mm 5 m/s 758 mmHg 74%
    08:00 +17°C° 0 mm 5 m/s 758 mmHg 70%
    09:00 +19°C° 0 mm 6 m/s 758 mmHg 66%
    10:00 +20°C° 0 mm 6 m/s 757 mmHg 62%
    11:00 +21°C° 0 mm 6 m/s 757 mmHg 58%
    12:00 +21°C° 0 mm 6 m/s 756 mmHg 59%
    13:00 +21°C° 0 mm 6 m/s 756 mmHg 59%
    14:00 +21°C° 0 mm 6 m/s 755 mmHg 59%
    15:00 +20°C° 0 mm 6 m/s 755 mmHg 64%
    16:00 +20°C° 0 mm 6 m/s 755 mmHg 68%
    17:00 +19°C° 0 mm 6 m/s 755 mmHg 72%
    18:00 +17°C° 0 mm 6 m/s 755 mmHg 76%
    19:00 +16°C° 0 mm 6 m/s 755 mmHg 79%
    20:00 +15°C° 0 mm 7 m/s 755 mmHg 82%
    21:00 +16°C° 0 mm 7 m/s 755 mmHg 83%
    22:00 +16°C° 0 mm 7 m/s 754 mmHg 84%
    23:00 +16°C° 0 mm 7 m/s 754 mmHg 84%

    27 Novembre, Lundi

    Heure Température Précipitation Vent Pression Humidité
    00:00 +16°C° 0,3 mm 6 m/s 753 mmHg 86%
    01:00 +16°C° 0,3 mm 6 m/s 752 mmHg 87%
    02:00 +16°C° 0,3 mm 5 m/s 752 mmHg 88%
    03:00 +16°C° 0,4 mm 5 m/s 751 mmHg 90%
    04:00 +16°C° 0,4 mm 5 m/s 751 mmHg 91%
    05:00 +17°C° 0,4 mm 4 m/s 751 mmHg 93%
    06:00 +17°C° 0,1 mm 4 m/s 751 mmHg 92%
    07:00 +17°C° 0,1 mm 5 m/s 751 mmHg 92%
    08:00 +17°C° 0,1 mm 5 m/s 751 mmHg 91%
    09:00 +19°C° 0,1 mm 4 m/s 751 mmHg 89%
    10:00 +19°C° 0,1 mm 4 m/s 751 mmHg 87%
    11:00 +19°C° 0,1 mm 4 m/s 750 mmHg 85%
    12:00 +20°C° 0 mm 4 m/s 750 mmHg 80%
    13:00 +21°C° 0 mm 4 m/s 750 mmHg 75%
    14:00 +22°C° 0 mm 4 m/s 749 mmHg 70%
    15:00 +22°C° 0 mm 4 m/s 749 mmHg 71%
    16:00 +22°C° 0 mm 4 m/s 749 mmHg 71%
    17:00 +22°C° 0 mm 3 m/s 749 mmHg 71%
    18:00 +20°C° 0 mm 3 m/s 749 mmHg 77%
    19:00 +19°C° 0 mm 3 m/s 749 mmHg 84%
    20:00 +17°C° 0 mm 2 m/s 750 mmHg 91%
    21:00 +17°C° 0 mm 2 m/s 749 mmHg 92%
    22:00 +16°C° 0 mm 2 m/s 749 mmHg 93%
    23:00 +16°C° 0 mm 1 m/s 749 mmHg 94%

    28 Novembre, Mardi

    Heure Température Précipitation Vent Pression Humidité
    00:00 +16°C° 0 mm 1 m/s 749 mmHg 95%
    01:00 +15°C° 0 mm 2 m/s 748 mmHg 95%
    02:00 +15°C° 0 mm 2 m/s 748 mmHg 96%
    03:00 +15°C° 0 mm 2 m/s 748 mmHg 96%
    04:00 +15°C° 0 mm 2 m/s 748 mmHg 96%
    05:00 +15°C° 0 mm 2 m/s 748 mmHg 96%
    06:00 +17°C° 0 mm 2 m/s 749 mmHg 87%
    07:00 +19°C° 0 mm 2 m/s 749 mmHg 77%
    08:00 +21°C° 0 mm 2 m/s 749 mmHg 68%
    09:00 +22°C° 0 mm 3 m/s 749 mmHg 64%
    10:00 +22°C° 0 mm 3 m/s 749 mmHg 59%
    11:00 +23°C° 0 mm 4 m/s 749 mmHg 55%
    12:00 +25°C° 0 mm 4 m/s 749 mmHg 55%
    13:00 +25°C° 0 mm 4 m/s 749 mmHg 54%
    14:00 +25°C° 0 mm 5 m/s 749 mmHg 54%
    15:00 +23°C° 0 mm 5 m/s 749 mmHg 58%
    16:00 +22°C° 0 mm 5 m/s 749 mmHg 62%
    17:00 +22°C° 0 mm 5 m/s 750 mmHg 65%
    18:00 +20°C° 0 mm 5 m/s 750 mmHg 71%
    19:00 +19°C° 0 mm 4 m/s 751 mmHg 76%
    20:00 +18°C° 0 mm 4 m/s 751 mmHg 81%
    21:00 +17°C° 0 mm 4 m/s 751 mmHg 82%
    22:00 +16°C° 0 mm 3 m/s 751 mmHg 83%
    23:00 +16°C° 0 mm 3 m/s 752 mmHg 85%
    Voir plus